Wetterdaten: Januar 2016
Datum Temp Feuchte Luftdruck Regen Wind Richtung Sonnenschein UV Solar Windben
01.01.2016 4,1 C 94 % 1023,1 hPa 0,8 l/m 3,5 km/h S 1,92 h 0,5 UV-I 86 W/m 9,3 km/h
02.01.2016 0,9 C 92 % 1013,4 hPa 1,8 l/m 16,1 km/h SO 0,00 h 0,5 UV-I 50 W/m 29,0 km/h
03.01.2016 -0,4 C 96 % 1003,7 hPa 2,8 l/m 9,6 km/h S-SO 0,00 h 0,0 UV-I 43 W/m 21,3 km/h
04.01.2016 -0,3 C 96 % 991,5 hPa 10,0 l/m 3,1 km/h SO 0,00 h 0,0 UV-I 37 W/m 7,7 km/h
05.01.2016 1,9 C 97 % 995,1 hPa 1,6 l/m 0,0 km/h SO 2,33 h 0,6 UV-I 84 W/m 0,0 km/h
06.01.2016 0,1 C 97 % 1000,2 hPa 1,4 l/m 0,0 km/h SO 0,25 h 0,0 UV-I 30 W/m 0,0 km/h
07.01.2016 2,3 C 97 % 993,8 hPa 7,8 l/m 10,4 km/h SO 0,08 h 0,5 UV-I 45 W/m 18,9 km/h
08.01.2016 2,6 C 86 % 1002,8 hPa 0,0 l/m 5,8 km/h S-SW 2,92 h 0,5 UV-I 110 W/m 16,9 km/h
09.01.2016 3,0 C 89 % 1001,1 hPa 0,2 l/m 13,2 km/h S-SO 4,25 h 0,6 UV-I 128 W/m 21,7 km/h
10.01.2016 5,4 C 89 % 992,8 hPa 5,4 l/m 11,7 km/h S-SO 3,83 h 0,6 UV-I 135 W/m 19,7 km/h
11.01.2016 3,2 C 95 % 987,6 hPa 3,6 l/m 4,7 km/h S-SO 0,00 h 0,0 UV-I 39 W/m 13,3 km/h
12.01.2016 4,2 C 90 % 995,0 hPa 5,4 l/m 8,9 km/h S-SW 0,00 h 0,0 UV-I 26 W/m 22,9 km/h
13.01.2016 3,2 C 95 % 1009,8 hPa 7,8 l/m 10,2 km/h S-SW 1,00 h 0,5 UV-I 73 W/m 27,4 km/h
14.01.2016 0,7 C 93 % 1004,7 hPa 0,4 l/m 5,0 km/h S-SO 1,17 h 0,5 UV-I 52 W/m 8,4 km/h
15.01.2016 0,9 C 95 % 1010,0 hPa 3,2 l/m 0,1 km/h N 0,17 h 0,5 UV-I 45 W/m 1,6 km/h
16.01.2016 -0,4 C 95 % 1018,0 hPa 2,4 l/m 2,0 km/h N-NW 0,17 h 0,5 UV-I 33 W/m 6,8 km/h
17.01.2016 -2,5 C 92 % 1024,3 hPa 0,6 l/m 0,7 km/h N-NW 0,00 h 0,0 UV-I 17 W/m 3,6 km/h
18.01.2016 -6,7 C 87 % 1020,1 hPa 0,0 l/m 1,1 km/h S-SO 5,33 h 0,6 UV-I 186 W/m 2,0 km/h
19.01.2016 -4,8 C 83 % 1016,0 hPa 0,0 l/m 1,7 km/h S-SW 5,17 h 0,6 UV-I 156 W/m 5,6 km/h
20.01.2016 -0,9 C 95 % 1018,1 hPa 2,0 l/m 0,4 km/h W 0,00 h 0,0 UV-I 19 W/m 2,0 km/h
21.01.2016 -6,4 C 93 % 1028,4 hPa 0,0 l/m 0,9 km/h S 3,08 h 0,0 UV-I 150 W/m 1,6 km/h
22.01.2016 -3,9 C 90 % 1026,4 hPa 0,2 l/m 16,8 km/h S-SO 5,42 h 0,8 UV-I 166 W/m 24,6 km/h
23.01.2016 4,0 C 98 % 1031,6 hPa 7,0 l/m 2,1 km/h W 0,00 h 0,0 UV-I 32 W/m 13,7 km/h
24.01.2016 5,0 C 98 % 1029,1 hPa 4,4 l/m 0,7 km/h S 0,00 h 0,5 UV-I 58 W/m 7,3 km/h
25.01.2016 7,7 C 92 % 1024,6 hPa 0,6 l/m 4,3 km/h S 2,83 h 0,6 UV-I 106 W/m 11,3 km/h
26.01.2016 8,8 C 84 % 1019,7 hPa 0,0 l/m 9,8 km/h S-SW 0,00 h 0,0 UV-I 21 W/m 24,5 km/h
27.01.2016 10,2 C 81 % 1013,0 hPa 2,0 l/m 10,8 km/h S-SW 0,00 h 0,5 UV-I 32 W/m 26,1 km/h
28.01.2016 4,6 C 84 % 1023,0 hPa 5,4 l/m 3,0 km/h S-SW 3,08 h 0,7 UV-I 145 W/m 11,7 km/h
29.01.2016 6,9 C 85 % 1021,2 hPa 0,0 l/m 21,3 km/h S-SW 0,00 h 0,6 UV-I 58 W/m 35,8 km/h
30.01.2016 4,2 C 91 % 1007,1 hPa 17,4 l/m 17,9 km/h S 0,00 h 0,0 UV-I 21 W/m 33,8 km/h
31.01.2016 4,1 C 91 % 1007,3 hPa 7,4 l/m 4,4 km/h S-SW 0,25 h 0,6 UV-I 78 W/m 16,5 km/h
Min-Datum 19.01.16 19.01.16 11.01.16 25 Tage 01.01.16 - - - - 01.01.16
Min-Zeit 08:45 13:45 18:10 - 03:05 - - - - 03:05
Minimum -12,4 C 61 % 985,8 hPa - 0,0 km/h - - - - 0,0 km/h
Max-Datum 25.01.16 14.01.16 23.01.16 30.01.16 30.01.16 - 22.01.16 28.01.16 28.01.16 30.01.16
Max-Zeit 13:45 03:50 21:40 13:20 10:15 - 15:45 12:25 12:20 10:10
Maximum 12,2 C 100 % 1034,4 hPa 17,4 l/m 31,9 km/h
S
- 5,33 h 1,0 UV-I 454 W/m 53,1 km/h
S-SW
Durchschnitt 2,0 C 92 % 1011,4 hPa #101,6 l/m 6,5 km/h S #43:15 h 0,6 UV-I 73 W/m 14,3 km/h

Durchschnitt Minimum Temp.-0,8 C
Durchschnitt Maximum Temp.4,2 C